WGS F2 (USA 204)

Last updated on Thu Nov 21 2024 00:02:41 GMT+0000 (Coordinated Universal Time)

1 34713U 09017A 24325.02048872 .00000069 00000+0 00000+0 0 9995 2 34713 0.0134 340.5955 0000287 257.7175 246.1123 1.00269659 39863
UTC large
Height (km)
Speed (km/s)
/
Latitude / Longitude
Inclination (degrees)
Orbital Period (minutes)
Azimuth
Elevation
Range (km)
Doppler Factor

Next 0 passes for location: London (51.5072 / 0.1276)

Sorry there are no passes over London.